Current weather by "City, St" or "zip code"  
 
Advertise Here

Current Conditions: Ozona Municipal Airport, TX

Fair


81.0 F

Last Updated on Sep 16 2021, 10:55 pm CDT
Humidity: 42%
Wind Speed: S 4.6 mph
Barometer 29.98 in
Dewpoint: 55.4 F
Visibility: 10.00 mi
Precip: --
Heat Index: 81 F
Wind Chill: NA
Current conditions at:

Ozona Municipal Airport, TX (KOZA)

Lat: 30.7353 Lon: 101.203

Local Radar Image active severe weather and emergency alerts image image weather storm and storm spotter reports image weather observation monitoring service image
Local
Radar
Active
Alerts
Storm Reports Obs
Monitoring

Sign-up For Email & Text Message Weather Alert Notification Services



Advertise Here

Observation History for Ozona Municipal Airport, TX


Time Wind
(mph)
Vis
(mi)
Weather Precip (in) Temperature (F) Relative
Humidity
Wind
Chill
(F)
Heat
Index
(F)
Pressure
Air Dwpt altimeter
(in)
sea level
(mb)
Rmks
10:55 pm CDT S 4.6 10.00 Fair -- 81.0 55.4 42% NA 81 29.98 M
9:55 pm CDT S 3.5 10.00 Fair -- 81.0 53.6 39% NA 81 29.96 M
8:55 pm CDT SE 3.5 10.00 Fair -- 82.0 53.6 37% NA 81 29.94 M
7:55 pm CDT S 3.5 10.00 Fair -- 88.0 53.6 31% NA 86 29.93 M
6:55 pm CDT S 5.8 10.00 Fair -- 91.0 53.6 28% NA 89 29.92 M
5:55 pm CDT S 4.6 10.00 Fair -- 91.0 53.6 28% NA 89 29.91 M
4:55 pm CDT S 8.1 10.00 Fair -- 91.0 53.6 28% NA 89 29.91 M
3:55 pm CDT N 0.0 10.00 Fair -- 91.0 55.4 30% NA 89 29.93 M
2:55 pm CDT SW 8.1 G 20.7 10.00 Partly Cloudy -- 90.0 55.4 31% NA 88 29.96 M
1:55 pm CDT SE 4.6 G 9.2 10.00 Partly Cloudy -- 88.0 55.4 33% NA 86 29.99 M
12:55 pm CDT S 10.4 G 17.3 10.00 Partly Cloudy -- 86.0 59.0 40% NA 85 30.01 M
11:55 am CDT S 12.7 G 18.4 10.00 Fair -- 82.0 59.0 45% NA 82 30.03 M
10:55 am CDT SW 8.1 G 16.1 10.00 Fair -- 79.0 60.8 54% NA NA 30.04 M
9:55 am CDT S 12.7 G 23.0 10.00 Fair -- 77.0 60.8 57% NA NA 30.04 M
8:55 am CDT S 6.9 10.00 Fair -- 72.0 60.8 69% NA NA 30.04 M
7:55 am CDT N 0.0 10.00 Fair -- 66.0 57.2 73% NA NA 30.02 M
6:55 am CDT N 0.0 10.00 Fair -- 68.0 57.2 69% NA NA 30.00 M
5:55 am CDT S 9.2 10.00 Fair -- 68.0 59.0 73% NA NA 29.99 M
4:55 am CDT S 6.9 10.00 Fair -- 70.0 57.2 64% NA NA 29.99 M
3:55 am CDT SE 8.1 10.00 Fair -- 70.0 57.2 64% NA NA 29.98 M
2:55 am CDT SE 5.8 10.00 Fair -- 72.0 55.4 57% NA NA 29.99 M
1:55 am CDT S 5.8 10.00 Fair -- 72.0 55.4 57% NA NA 30.00 M
12:55 am CDT E 8.1 10.00 Fair -- 75.0 55.4 50% NA NA 30.00 M
11:55 pm CDT E 8.1 10.00 Fair -- 77.0 55.4 47% NA NA 30.01 M

Regional Weather Observation


Reagan County Airport, TX (KE41)

Fair
78.0 F

Sonora, Sonora Municipal Airport, TX (KSOA)

Fair
81.0 F

San Angelo, Mathis Field, TX (KSJT)

Fair
77.0 F

Dryden - Terrell County Airport, TX (K6R6)

NULL
82.0 F

Midland, Midland International Airport, TX (KMAF)

Fair
76.0 F

Fort Stockton, Fort Stockton-Pecos County Airport, TX (KFST)

Fair
77.0 F
Advertise Here


Advertise Here